Valentine, NE

2:37 AM CDT on July 27, 2017 (GMT -0500)
Miller Field

Weather History for KVTN - October, 2012

Change the Weather History Date:

Sunday, October 21, 2012

  Actual Average Record
Temperature  
Mean Temperature 56 °F 46 °F  
Max Temperature 66 °F 61 °F 90 °F (1947)
Min Temperature 45 °F 32 °F 12 °F (1987)
Degree Days  
Heating Degree Days 9 19  
Month to date heating degree days 336 310  
Since 1 July heating degree days 454 495  
Cooling Degree Days 0 0  
Month to date cooling degree days 0 1  
Year to date cooling degree days 1303 818  
Growing Degree Days 6 (Base 50)    
Moisture  
Dew Point 38 °F    
Average Humidity 59    
Maximum Humidity 86    
Minimum Humidity 32    
Precipitation  
Precipitation 0.00 in 0.04 in 0.44 in (1979)
Month to date precipitation 0.13 0.93  
Year to date precipitation 9.59 18.68  
Snow  
Snow 0.00 in 0.00 in 1.10 in (1981)
Month to date snowfall T 0.7  
Since 1 July snowfall T 1.4  
Since 1 September snowfall T 1.4  
Snow Depth 0.00 in    
Sea Level Pressure  
Sea Level Pressure 29.79 in    
Wind  
Wind Speed 12 mph (North)    
Max Wind Speed 22 mph    
Max Gust Speed 29 mph    
Visibility 10 miles    
Events      
T = Trace of Precipitation, MM = Missing Value Source: NWS Daily Summary

Daily Weather History Graph

Daily Weather History Graph

Search for Another Location

Airport or City:

Trip Planner

Search our weather history database for the weather conditions in past years. The results will help you decide how hot, cold, wet, or windy it might be!

Date:

Astronomy

Oct. 21, 2012 Rise Set
Actual Time 8:03 AM CDT 6:49 PM CDT
Civil Twilight 7:34 AM CDT 7:18 PM CDT
Nautical Twilight 7:01 AM CDT 7:51 PM CDT
Astronomical Twilight 6:28 AM CDT 8:23 PM CDT
Moon 2:28 PM CDT (10/21) No Moon Set
Length of Visible Light 11h 43m
Length of Day
10h 45m
Waxing Crescent, 45% of the Moon is Illuminated
Oct 21
Waxing Crescent
Oct 21
First Quarter
Oct 29
Full
Nov 6
Last Quarter
Nov 13
New

Hourly Weather History & Observations

Time (CDT) Temp. Windchill Dew Point Humidity Pressure Visibility Wind Dir Wind Speed Gust Speed Precip Events Conditions
12:52 AM 51.1 °F - 26.1 °F 38% 29.54 in 10.0 mi Calm Calm - N/A   Clear
1:52 AM 51.1 °F - 25.0 °F 36% 29.54 in 10.0 mi SW 9.2 mph - N/A   Clear
2:52 AM 52.0 °F - 24.1 °F 34% 29.54 in 10.0 mi West 3.5 mph - N/A   Clear
3:52 AM 51.1 °F - 23.0 °F 33% 29.58 in 10.0 mi West 8.1 mph - N/A   Clear
4:52 AM 52.0 °F - 35.1 °F 53% 29.60 in 10.0 mi WNW 11.5 mph 19.6 mph N/A   Clear
5:52 AM 48.9 °F - 34.0 °F 56% 29.64 in 10.0 mi WNW 8.1 mph - N/A   Clear
6:52 AM 46.9 °F - 34.0 °F 61% 29.70 in 10.0 mi NW 10.4 mph - N/A   Clear
7:52 AM 46.0 °F 43.9 °F 37.0 °F 71% 29.75 in 10.0 mi NW 4.6 mph - N/A   Clear
8:52 AM 48.9 °F - 39.9 °F 71% 29.78 in 10.0 mi NW 10.4 mph - N/A   Clear
9:52 AM 51.8 °F - 42.8 °F 71% 29.82 in 10.0 mi NNW 16.1 mph 25.3 mph N/A   Clear
10:52 AM 57.0 °F - 43.0 °F 59% 29.83 in 10.0 mi North 11.5 mph - N/A   Clear
11:52 AM 59.0 °F - 42.8 °F 55% 29.85 in 10.0 mi North 13.8 mph 26.5 mph N/A   Clear
12:52 PM 62.1 °F - 43.0 °F 50% 29.84 in 10.0 mi North 18.4 mph 26.5 mph N/A   Clear
1:52 PM 63.0 °F - 42.1 °F 46% 29.83 in 10.0 mi North 13.8 mph 23.0 mph N/A   Clear
2:52 PM 64.9 °F - 42.1 °F 43% 29.82 in 10.0 mi NNE 16.1 mph 24.2 mph N/A   Clear
3:52 PM 66.0 °F - 41.0 °F 40% 29.81 in 10.0 mi NNE 17.3 mph - N/A   Clear
4:52 PM 64.9 °F - 42.1 °F 43% 29.83 in 10.0 mi NE 18.4 mph 24.2 mph N/A   Clear
5:52 PM 62.1 °F - 42.1 °F 48% 29.86 in 10.0 mi NNE 13.8 mph 23.0 mph N/A   Clear
6:52 PM 59.0 °F - 42.1 °F 53% 29.89 in 10.0 mi NNE 15.0 mph 20.7 mph N/A   Clear
7:52 PM 55.0 °F - 43.0 °F 64% 29.91 in 10.0 mi NE 11.5 mph - N/A   Clear
8:52 PM 52.0 °F - 43.0 °F 71% 29.94 in 10.0 mi ENE 10.4 mph - N/A   Clear
9:52 PM 48.9 °F - 43.0 °F 80% 29.96 in 10.0 mi ENE 13.8 mph - N/A   Clear
10:31 PM 48.2 °F - 44.6 °F 87% 29.95 in 10.0 mi NE 12.7 mph - N/A   Mostly Cloudy
10:52 PM 48.9 °F - 44.1 °F 83% 29.95 in 10.0 mi ENE 15.0 mph - N/A   Overcast
11:37 PM 46.4 °F 41.5 °F 42.8 °F 87% 29.95 in 10.0 mi NE 10.4 mph - N/A   Mostly Cloudy
11:52 PM 46.0 °F 41.0 °F 41.0 °F 83% 29.95 in 10.0 mi NE 10.4 mph - N/A   Scattered Clouds